Location: *
(58.4167°N, 22.5000°E)
Time: 05:01:41
(UTC+00:00)

Meteor 1-12 Rocket - Pass Details

Date: 22 September 2019
Orbit: 855 x 926 km, 81.2° (Epoch: 18 October)

Event Time Altitude Azimuth Distance (km) Brightness Sun altitude
Rises 17:18:56 0° 190° (S) 3,446 7.4 -7.1°
Reaches altitude 10° 17:21:22 10° 190° (S) 2,505 6.6 -7.4°
Maximum altitude 17:27:03 83° 103° (ESE) 873 4.2 -8.1°
Drops below altitude 10° 17:32:44 10° 17° (NNE) 2,502 6.7 -8.9°
Sets 17:35:10 0° 17° (NNE) 3,443 7.4 -9.2°
